Terminal Aerodrome Forecast
Issued by NWS

Home | Current Version | Previous Version | Text Only | Print | Product List | Glossary On
Versions: 1 2 3 4 5 6 7 8 9 10 11 12 13
000
FTUS42 TJSJ 280521
TAFISX
TAF
TISX 280521Z 2806/2906 06005KT P6SM FEW025
     FM281300 10013KT P6SM SCT025
     FM282300 06006KT P6SM FEW025=

USA.gov is the U.S. government's official web portal to all federal, state and local government web resources and services.